Weather in Kosgoda

Sri Lanka     6°20′17″N   80°01′46″E
В апреле 2022 года жителям России запретили посещать сайт meteo.paraplan.net по решению Генеральной прокуратуры. Аудитория сайта уменьшилась в 10 раз. Владельцы сайта не видят смысла в поддержке погодного сервера в таких условиях. Сайт будет закрыт в октябре.
temp.,
°C
wind,
m/s
gust,
m/s
humid.,
%
clouds,
%
prec.,
mm/h
press.,
hPa
HPBL,
m
6 october, thu
thu623:30+26wsw6887100 5.3 1010567
02:30+26w6985100 3.3 1008615
05:30+26wsw7985100 4.8 1008625
08:30+26w71084100 1.4 1010804
11:30+27w7108192 2.4 1009940
14:30+27w7980100 2.1 1007835
17:30+26w6983100 3.4 1008720
20:30+26w4786100 0.8 1010561
7 october, fri
fri723:30+26w5885100 2.8 1010556
02:30+26w578683 2.4 1007530
05:30+25w578683 4.6 1008477
08:30+26w588220 2.8 1011732
11:30+27w798224 5.0 1009893
14:30+27w8108029 1.1 1006985
17:30+26w698491 2.9 1008727
20:30+26w6986100 1.9 1010714
8 october, sat
sat823:30+26w71085100 3.5 1010738
02:30+26w7108598 1.2 1008759
05:30+26w7108490 1.4 1008756
08:30+27w687999 0.3 1010899
11:30+27wnw797729 1.2 1010954
14:30+27wnw897995 1.3 1007926
17:30+26w6983100 2.8 1008668
20:30+26wnw58865 1.0 1010571
9 october, sun
sun923:30+26w47865 1.6 1010534
02:30+26w58865 0.4 1008602
05:30+26w68859 2.1 1009561
08:30+27w68815 1.6 1011767
11:30+28wnw68775 2.6 1010919
14:30+27wnw677718 0.4 1008880
17:30+26wnw57835 1.0 1008649
20:30+26w578547 0.9 1011479
10 october, mon
mon1023:30+26w46875 2.4 1011446
02:30+25w46865 1.9 1009397
05:30+25w46865 3.8 1010413
08:30+27wsw568010 1.0 1011664
11:30+28w567726 1.4 1011836
14:30+27w567610 0.4 1008835
17:30+27w46811 1.3 1009534
20:30+26wsw458537 1.3 1011395